LVSTV SAXH-SAAV

Flight info

Callsign LVSTV
Flight time N/A
Altitude 3000
Route DCT
Aircraft PA24/L-SDGRY/S

Departure

Time N/A
Airport SAXH

Arrival

Time 2026-04-29 22:36
Airport Sauce Viejo Airport (SAAV)
Time Latitude Longitude Altitude Speed Heading
2026-04-29 21:49 -30.55908 -59.99073 94 ft 0 kts 210°
2026-04-29 21:50 -30.55910 -59.99075 94 ft 1 kts 233°
2026-04-29 21:50 -30.55892 -59.99074 94 ft 7 kts 52°
2026-04-29 21:50 -30.55857 -59.98976 95 ft 14 kts 72°
2026-04-29 21:51 -30.55927 -59.98918 95 ft 15 kts 160°
2026-04-29 21:51 -30.56039 -59.98870 93 ft 19 kts 160°
2026-04-29 21:51 -30.56094 -59.98857 93 ft 0 kts 338°
2026-04-29 21:52 -30.55900 -59.98949 100 ft 66 kts 335°
2026-04-29 21:52 -30.55439 -59.99175 286 ft 78 kts 337°
2026-04-29 21:52 -30.54950 -59.99453 561 ft 82 kts 314°
2026-04-29 21:53 -30.54846 -60.00094 781 ft 87 kts 238°
2026-04-29 21:53 -30.55408 -60.00242 986 ft 95 kts 156°
2026-04-29 21:53 -30.56006 -59.99890 1236 ft 101 kts 154°
2026-04-29 21:53 -30.56640 -59.99525 1498 ft 102 kts 156°
2026-04-29 21:54 -30.57283 -59.99167 1763 ft 102 kts 154°
2026-04-29 21:54 -30.57913 -59.98757 1980 ft 105 kts 146°
2026-04-29 21:54 -30.58517 -59.98281 2230 ft 105 kts 149°
2026-04-29 21:54 -30.59210 -59.97950 2395 ft 109 kts 167°
2026-04-29 21:55 -30.59943 -59.97832 2609 ft 106 kts 180°
2026-04-29 21:55 -30.60689 -59.97856 2790 ft 106 kts 187°
2026-04-29 21:55 -30.61431 -59.97908 2902 ft 111 kts 187°
2026-04-29 21:55 -30.62208 -59.97977 3034 ft 109 kts 189°
2026-04-29 21:56 -30.62972 -59.98080 3100 ft 115 kts 191°
2026-04-29 21:56 -30.63773 -59.98198 3153 ft 118 kts 190°
2026-04-29 21:56 -30.64613 -59.98273 3200 ft 121 kts 187°
2026-04-29 21:56 -30.65461 -59.98310 3196 ft 127 kts 185°
2026-04-29 21:57 -30.66347 -59.98331 3274 ft 125 kts 185°
2026-04-29 21:57 -30.67248 -59.98352 3203 ft 134 kts 185°
2026-04-29 21:57 -30.68190 -59.98376 3173 ft 137 kts 185°
2026-04-29 21:57 -30.69148 -59.98400 3147 ft 139 kts 185°
2026-04-29 21:58 -30.70120 -59.98427 3109 ft 141 kts 185°
2026-04-29 21:58 -30.71106 -59.98458 3075 ft 142 kts 185°
2026-04-29 21:58 -30.72091 -59.98489 3045 ft 142 kts 185°
2026-04-29 21:58 -30.73082 -59.98524 3017 ft 142 kts 185°
2026-04-29 21:59 -30.74071 -59.98559 2987 ft 142 kts 185°
2026-04-29 21:59 -30.75054 -59.98589 2998 ft 140 kts 185°
2026-04-29 21:59 -30.76027 -59.98616 2989 ft 140 kts 186°
2026-04-29 21:59 -30.76997 -59.98689 2987 ft 139 kts 188°
2026-04-29 22:00 -30.77963 -59.98772 2988 ft 138 kts 188°
2026-04-29 22:00 -30.78907 -59.98856 3003 ft 134 kts 188°
2026-04-29 22:00 -30.79834 -59.98936 2986 ft 135 kts 188°
2026-04-29 22:00 -30.80774 -59.99017 2993 ft 136 kts 188°
2026-04-29 22:01 -30.81716 -59.99098 2996 ft 136 kts 188°
2026-04-29 22:01 -30.82664 -59.99180 2995 ft 137 kts 188°
2026-04-29 22:01 -30.83612 -59.99280 2998 ft 137 kts 191°
2026-04-29 22:01 -30.84555 -59.99438 2995 ft 137 kts 192°
2026-04-29 22:02 -30.85496 -59.99600 2995 ft 137 kts 192°
2026-04-29 22:02 -30.86440 -59.99763 2995 ft 137 kts 192°
2026-04-29 22:02 -30.87383 -59.99927 2995 ft 137 kts 192°
2026-04-29 22:02 -30.88325 -60.00092 2995 ft 137 kts 192°
2026-04-29 22:03 -30.89269 -60.00254 2992 ft 137 kts 192°
2026-04-29 22:03 -30.90199 -60.00415 2992 ft 137 kts 192°
2026-04-29 22:03 -30.91169 -60.00588 2994 ft 138 kts 192°
2026-04-29 22:03 -30.92108 -60.00756 2995 ft 139 kts 192°
2026-04-29 22:04 -30.93074 -60.00928 3000 ft 139 kts 193°
2026-04-29 22:04 -30.94022 -60.01153 2997 ft 139 kts 196°
2026-04-29 22:04 -30.94968 -60.01398 2994 ft 139 kts 196°
2026-04-29 22:04 -30.95915 -60.01645 2993 ft 139 kts 196°
2026-04-29 22:05 -30.96860 -60.01892 2993 ft 139 kts 196°
2026-04-29 22:05 -30.97802 -60.02140 2992 ft 139 kts 196°
2026-04-29 22:05 -30.99673 -60.02637 2991 ft 138 kts 196°
2026-04-29 22:06 -31.00614 -60.02880 2993 ft 138 kts 196°
2026-04-29 22:06 -31.01546 -60.03149 2993 ft 138 kts 200°
2026-04-29 22:06 -31.02469 -60.03469 2992 ft 138 kts 200°
2026-04-29 22:06 -31.03388 -60.03790 2992 ft 138 kts 200°
2026-04-29 22:07 -31.04307 -60.04112 2993 ft 138 kts 200°
2026-04-29 22:07 -31.05228 -60.04434 2992 ft 138 kts 200°
2026-04-29 22:07 -31.06145 -60.04767 2993 ft 138 kts 204°
2026-04-29 22:07 -31.07021 -60.05208 2993 ft 137 kts 207°
2026-04-29 22:08 -31.07874 -60.05710 2993 ft 137 kts 211°
2026-04-29 22:08 -31.08703 -60.06223 2990 ft 137 kts 211°
2026-04-29 22:08 -31.09541 -60.06746 2989 ft 137 kts 211°
2026-04-29 22:08 -31.10379 -60.07270 2989 ft 136 kts 211°
2026-04-29 22:09 -31.11194 -60.07832 2990 ft 136 kts 216°
2026-04-29 22:09 -31.11985 -60.08439 2989 ft 136 kts 216°
2026-04-29 22:09 -31.12778 -60.09050 2989 ft 136 kts 216°
2026-04-29 22:09 -31.13567 -60.09658 2989 ft 136 kts 216°
2026-04-29 22:10 -31.14356 -60.10268 2988 ft 135 kts 216°
2026-04-29 22:10 -31.15140 -60.10874 2988 ft 135 kts 216°
2026-04-29 22:10 -31.15927 -60.11481 2987 ft 135 kts 216°
2026-04-29 22:10 -31.16713 -60.12085 2987 ft 135 kts 216°
2026-04-29 22:11 -31.17494 -60.12687 2991 ft 135 kts 216°
2026-04-29 22:11 -31.18273 -60.13285 2993 ft 135 kts 216°
2026-04-29 22:11 -31.19060 -60.13894 2993 ft 136 kts 216°
2026-04-29 22:11 -31.19853 -60.14504 2993 ft 136 kts 216°
2026-04-29 22:12 -31.20641 -60.15111 2993 ft 136 kts 216°
2026-04-29 22:12 -31.21429 -60.15721 2993 ft 136 kts 216°
2026-04-29 22:12 -31.22223 -60.16333 2993 ft 137 kts 216°
2026-04-29 22:12 -31.23015 -60.16944 2992 ft 136 kts 216°
2026-04-29 22:13 -31.23804 -60.17557 2991 ft 137 kts 216°
2026-04-29 22:13 -31.24602 -60.18180 2991 ft 138 kts 216°
2026-04-29 22:13 -31.25389 -60.18798 2990 ft 138 kts 216°
2026-04-29 22:13 -31.26188 -60.19425 2990 ft 138 kts 216°
2026-04-29 22:14 -31.26989 -60.20053 2990 ft 138 kts 216°
2026-04-29 22:14 -31.27791 -60.20680 2990 ft 138 kts 216°
2026-04-29 22:14 -31.28584 -60.21304 2989 ft 137 kts 216°
2026-04-29 22:14 -31.29378 -60.21930 2989 ft 137 kts 216°
2026-04-29 22:15 -31.30170 -60.22554 2990 ft 137 kts 217°
2026-04-29 22:15 -31.30960 -60.23175 2989 ft 137 kts 217°
2026-04-29 22:15 -31.31752 -60.23797 2990 ft 137 kts 217°
2026-04-29 22:15 -31.32544 -60.24420 2990 ft 137 kts 216°
2026-04-29 22:16 -31.33335 -60.25043 2990 ft 137 kts 217°
2026-04-29 22:16 -31.34129 -60.25667 2989 ft 137 kts 217°
2026-04-29 22:16 -31.34909 -60.26298 2990 ft 136 kts 220°
2026-04-29 22:16 -31.35650 -60.26993 2989 ft 136 kts 221°
2026-04-29 22:17 -31.36138 -60.27458 2992 ft 136 kts 221°
2026-04-29 22:17 -31.37122 -60.28394 2992 ft 136 kts 221°
2026-04-29 22:17 -31.37857 -60.29095 2989 ft 136 kts 221°
2026-04-29 22:17 -31.38593 -60.29798 2990 ft 137 kts 221°
2026-04-29 22:18 -31.39329 -60.30504 2987 ft 137 kts 221°
2026-04-29 22:18 -31.39819 -60.30972 2987 ft 137 kts 221°
2026-04-29 22:18 -31.40557 -60.31677 2987 ft 137 kts 221°
2026-04-29 22:18 -31.41292 -60.32381 2987 ft 137 kts 221°
2026-04-29 22:19 -31.42264 -60.33312 2987 ft 136 kts 221°
2026-04-29 22:19 -31.42761 -60.33787 2987 ft 136 kts 221°
2026-04-29 22:19 -31.43497 -60.34492 2987 ft 136 kts 221°
2026-04-29 22:19 -31.44218 -60.35213 2988 ft 136 kts 226°
2026-04-29 22:20 -31.44890 -60.35999 2987 ft 136 kts 227°
2026-04-29 22:20 -31.45547 -60.36779 2987 ft 136 kts 227°
2026-04-29 22:20 -31.46210 -60.37569 2986 ft 136 kts 227°
2026-04-29 22:20 -31.46870 -60.38358 2989 ft 135 kts 227°
2026-04-29 22:21 -31.47531 -60.39146 2987 ft 136 kts 227°
2026-04-29 22:21 -31.48193 -60.39937 2987 ft 135 kts 227°
2026-04-29 22:21 -31.48851 -60.40725 2986 ft 135 kts 228°
2026-04-29 22:21 -31.49511 -60.41513 2987 ft 135 kts 228°
2026-04-29 22:22 -31.50172 -60.42303 2987 ft 136 kts 228°
2026-04-29 22:22 -31.50832 -60.43095 2987 ft 136 kts 228°
2026-04-29 22:22 -31.51483 -60.43895 2988 ft 136 kts 231°
2026-04-29 22:22 -31.52084 -60.44749 2986 ft 136 kts 232°
2026-04-29 22:23 -31.52678 -60.45606 2986 ft 135 kts 233°
2026-04-29 22:23 -31.53270 -60.46466 2988 ft 136 kts 233°
2026-04-29 22:23 -31.53864 -60.47339 2987 ft 137 kts 233°
2026-04-29 22:23 -31.54459 -60.48218 2987 ft 137 kts 233°
2026-04-29 22:24 -31.55053 -60.49097 2990 ft 138 kts 233°
2026-04-29 22:24 -31.55651 -60.49979 2990 ft 138 kts 233°
2026-04-29 22:24 -31.56244 -60.50860 2990 ft 138 kts 233°
2026-04-29 22:24 -31.56837 -60.51740 2990 ft 137 kts 233°
2026-04-29 22:25 -31.57422 -60.52610 2986 ft 138 kts 233°
2026-04-29 22:25 -31.58015 -60.53494 2986 ft 138 kts 233°
2026-04-29 22:25 -31.58605 -60.54376 2986 ft 137 kts 233°
2026-04-29 22:25 -31.59197 -60.55258 2987 ft 138 kts 233°
2026-04-29 22:26 -31.59791 -60.56144 2987 ft 138 kts 233°
2026-04-29 22:26 -31.60307 -60.57086 2986 ft 138 kts 248°
2026-04-29 22:26 -31.60664 -60.58122 2986 ft 136 kts 249°
2026-04-29 22:26 -31.61011 -60.59159 2908 ft 138 kts 252°
2026-04-29 22:27 -31.61160 -60.60288 2814 ft 139 kts 264°
2026-04-29 22:27 -31.61262 -60.61385 2763 ft 135 kts 264°
2026-04-29 22:27 -31.61362 -60.62502 2611 ft 138 kts 264°
2026-04-29 22:27 -31.61461 -60.63594 2578 ft 132 kts 265°
2026-04-29 22:28 -31.61282 -60.64660 2410 ft 138 kts 289°
2026-04-29 22:28 -31.60973 -60.65674 2405 ft 131 kts 288°
2026-04-29 22:28 -31.60654 -60.66672 2355 ft 127 kts 289°
2026-04-29 22:28 -31.60343 -60.67659 2307 ft 126 kts 289°
2026-04-29 22:29 -31.60083 -60.68590 2313 ft 118 kts 286°
2026-04-29 22:29 -31.59798 -60.69462 2306 ft 108 kts 290°
2026-04-29 22:29 -31.59528 -60.70245 2215 ft 101 kts 290°
2026-04-29 22:29 -31.59267 -60.70991 2132 ft 99 kts 290°
2026-04-29 22:30 -31.59024 -60.71711 2109 ft 95 kts 289°
2026-04-29 22:30 -31.58806 -60.72428 2136 ft 89 kts 287°
2026-04-29 22:30 -31.58630 -60.73123 2197 ft 88 kts 286°
2026-04-29 22:30 -31.58438 -60.73801 2272 ft 87 kts 288°
2026-04-29 22:31 -31.58238 -60.74463 2347 ft 87 kts 271°
2026-04-29 22:31 -31.58611 -60.75022 2348 ft 98 kts 206°
2026-04-29 22:31 -31.59257 -60.75246 2353 ft 96 kts 199°
2026-04-29 22:31 -31.59892 -60.75525 2292 ft 99 kts 206°
2026-04-29 22:32 -31.60512 -60.75849 2208 ft 98 kts 205°
2026-04-29 22:32 -31.61154 -60.76169 2091 ft 102 kts 203°
2026-04-29 22:32 -31.61825 -60.76494 1918 ft 105 kts 206°
2026-04-29 22:32 -31.62472 -60.76851 1734 ft 104 kts 206°
2026-04-29 22:33 -31.63138 -60.77173 1568 ft 103 kts 202°
2026-04-29 22:33 -31.63797 -60.77510 1356 ft 105 kts 207°
2026-04-29 22:33 -31.64474 -60.77868 1122 ft 106 kts 202°
2026-04-29 22:33 -31.65137 -60.78186 963 ft 99 kts 204°
2026-04-29 22:34 -31.65754 -60.78494 855 ft 95 kts 204°
2026-04-29 22:34 -31.66347 -60.78785 777 ft 92 kts 205°
2026-04-29 22:34 -31.66938 -60.79072 681 ft 91 kts 205°
2026-04-29 22:34 -31.67525 -60.79367 578 ft 92 kts 206°
2026-04-29 22:35 -31.68117 -60.79654 472 ft 91 kts 205°
2026-04-29 22:35 -31.68698 -60.79944 330 ft 88 kts 206°
2026-04-29 22:35 -31.69244 -60.80213 215 ft 83 kts 205°
2026-04-29 22:35 -31.69755 -60.80468 136 ft 78 kts 205°
2026-04-29 22:36 -31.70229 -60.80705 67 ft 69 kts 205°
2026-04-29 22:36 -31.70557 -60.80870 60 ft 35 kts 204°
2026-04-29 22:36 -31.70707 -60.80929 62 ft 11 kts 143°
2026-04-29 22:36 -31.70749 -60.80832 60 ft 14 kts 112°
2026-04-29 22:37 -31.70784 -60.80739 57 ft 0 kts 114°
2026-04-29 22:37 -31.70803 -60.80691 58 ft 12 kts 113°
2026-04-29 22:37 -31.70852 -60.80685 55 ft 12 kts 209°
2026-04-29 22:37 -31.70939 -60.80738 59 ft 15 kts 205°
2026-04-29 22:38 -31.70992 -60.80750 58 ft 8 kts 120°
2026-04-29 22:38 -31.71013 -60.80680 57 ft 14 kts 109°
2026-04-29 22:38 -31.70999 -60.80626 59 ft 6 kts 326°
2026-04-29 22:38 -31.70994 -60.80641 57 ft 0 kts 232°